owner,sensor,date,latitude,longitude,vertical_datum,sea_water_temperature,qcFlag
BP,ioos:station:wmo:42865:1,2022-08-04T01:13:00Z,28.1778,-88.4643,0.0,28.5,11111222
BP,ioos:station:wmo:42865:1,2022-08-04T01:23:00Z,28.1778,-88.4643,0.0,28.6,11111222
BP,ioos:station:wmo:42865:1,2022-08-04T01:33:00Z,28.1778,-88.4643,0.0,28.5,11111222
BP,ioos:station:wmo:42865:1,2022-08-04T01:43:00Z,28.1778,-88.4643,0.0,28.2,11111222
BP,ioos:station:wmo:42865:1,2022-08-04T01:53:00Z,28.1778,-88.4643,0.0,27.7,11111222
BP,ioos:station:wmo:42865:1,2022-08-04T02:03:00Z,28.1778,-88.4643,0.0,27.6,11111222
BP,ioos:station:wmo:42865:1,2022-08-04T02:13:00Z,28.1778,-88.4643,0.0,27.3,11111222
BP,ioos:station:wmo:42865:1,2022-08-04T02:23:00Z,28.1778,-88.4643,0.0,26.8,11111222
BP,ioos:station:wmo:42865:1,2022-08-04T02:33:00Z,28.1778,-88.4643,0.0,26.5,11111222
BP,ioos:station:wmo:42865:1,2022-08-04T02:43:00Z,28.1778,-88.4643,0.0,26.8,11111222
BP,ioos:station:wmo:42865:1,2022-08-04T02:53:00Z,28.1778,-88.4643,0.0,27.1,11111222
BP,ioos:station:wmo:42865:1,2022-08-04T03:03:00Z,28.1778,-88.4643,0.0,27.4,11111222
BP,ioos:station:wmo:42865:1,2022-08-04T03:13:00Z,28.1778,-88.4643,0.1,27.4,11111222
BP,ioos:station:wmo:42865:1,2022-08-04T03:23:00Z,28.1778,-88.4643,0.0,27.8,11111222
BP,ioos:station:wmo:42865:1,2022-08-04T03:33:00Z,28.1778,-88.4643,0.0,28.3,11111222
BP,ioos:station:wmo:42865:1,2022-08-04T03:43:00Z,28.1778,-88.4643,0.0,28.3,11111222
BP,ioos:station:wmo:42865:1,2022-08-04T03:53:00Z,28.1778,-88.4643,0.0,28.2,11111222
BP,ioos:station:wmo:42865:1,2022-08-04T04:03:00Z,28.1778,-88.4643,0.0,28.1,11111222
BP,ioos:station:wmo:42865:1,2022-08-04T04:14:00Z,28.1778,-88.4643,0.0,28.1,11111222
BP,ioos:station:wmo:42865:1,2022-08-04T04:24:00Z,28.1778,-88.4643,0.0,28.3,11111222
BP,ioos:station:wmo:42865:1,2022-08-04T04:27:00Z,28.4435,-88.2770,11.0,30.0,11111222
BP,ioos:station:wmo:42865:1,2022-08-04T04:34:00Z,28.1778,-88.4643,0.0,28.2,11111222
BP,ioos:station:wmo:42865:1,2022-08-04T04:37:00Z,28.4435,-88.2770,11.0,30.2,11111222
BP,ioos:station:wmo:42865:1,2022-08-04T04:44:00Z,28.1778,-88.4643,0.0,28.1,11111222
BP,ioos:station:wmo:42865:1,2022-08-04T04:47:00Z,28.4435,-88.2770,11.0,29.9,11111222
BP,ioos:station:wmo:42865:1,2022-08-04T04:54:00Z,28.1778,-88.4643,0.0,28.1,11111222
BP,ioos:station:wmo:42865:1,2022-08-04T04:57:00Z,28.4435,-88.2770,11.0,30.0,11111222
BP,ioos:station:wmo:42865:1,2022-08-04T05:04:00Z,28.1778,-88.4643,0.0,28.4,11111222
BP,ioos:station:wmo:42865:1,2022-08-04T05:07:00Z,28.4435,-88.2770,11.0,29.6,11111222
BP,ioos:station:wmo:42865:1,2022-08-04T05:14:00Z,28.1778,-88.4643,0.0,28.4,11111222
BP,ioos:station:wmo:42865:1,2022-08-04T05:17:00Z,28.4435,-88.2770,11.0,29.6,11111222
BP,ioos:station:wmo:42865:1,2022-08-04T05:24:00Z,28.1778,-88.4643,0.0,28.5,11111222
BP,ioos:station:wmo:42865:1,2022-08-04T05:28:00Z,28.4435,-88.2770,11.0,29.8,11111222
BP,ioos:station:wmo:42865:1,2022-08-04T05:34:00Z,28.1778,-88.4643,0.0,28.5,11111222
BP,ioos:station:wmo:42865:1,2022-08-04T05:38:00Z,28.4435,-88.2770,11.0,29.8,11111222
BP,ioos:station:wmo:42865:1,2022-08-04T05:44:00Z,28.1778,-88.4643,0.0,28.6,11111222
BP,ioos:station:wmo:42865:1,2022-08-04T05:48:00Z,28.4435,-88.2770,11.0,29.9,11111222
BP,ioos:station:wmo:42865:1,2022-08-04T05:54:00Z,28.1778,-88.4643,0.0,28.9,11111222
BP,ioos:station:wmo:42865:1,2022-08-04T06:04:00Z,28.1778,-88.4643,0.0,29.2,11111222
BP,ioos:station:wmo:42865:1,2022-08-04T06:14:00Z,28.1778,-88.4643,0.0,29.5,11111222
BP,ioos:station:wmo:42865:1,2022-08-04T06:24:00Z,28.1778,-88.4643,0.0,29.7,11111222
BP,ioos:station:wmo:42865:1,2022-08-04T06:34:00Z,28.1778,-88.4643,0.0,29.7,11111222
BP,ioos:station:wmo:42865:1,2022-08-04T06:44:00Z,28.1778,-88.4643,0.0,29.9,11111222
BP,ioos:station:wmo:42865:1,2022-08-04T06:54:00Z,28.1778,-88.4643,0.0,30.1,11111222
BP,ioos:station:wmo:42865:1,2022-08-04T07:04:00Z,28.1778,-88.4643,0.0,30.4,11111222
BP,ioos:station:wmo:42865:1,2022-08-04T07:14:00Z,28.1778,-88.4643,0.1,30.4,11111222
BP,ioos:station:wmo:42865:1,2022-08-04T07:24:00Z,28.1778,-88.4643,0.1,30.2,11111222
BP,ioos:station:wmo:42865:1,2022-08-04T07:34:00Z,28.1778,-88.4643,0.0,30.2,11111222
BP,ioos:station:wmo:42865:1,2022-08-04T07:44:00Z,28.1778,-88.4643,0.0,30.3,11111222
BP,ioos:station:wmo:42865:1,2022-08-04T07:54:00Z,28.1778,-88.4643,0.0,30.3,11111222
BP,ioos:station:wmo:42865:1,2022-08-04T08:04:00Z,28.1778,-88.4643,0.0,30.4,11111222
BP,ioos:station:wmo:42865:1,2022-08-04T08:14:00Z,28.1778,-88.4643,0.0,30.4,11111222
BP,ioos:station:wmo:42865:1,2022-08-04T08:24:00Z,28.1778,-88.4643,0.0,30.4,11111222
BP,ioos:station:wmo:42865:1,2022-08-04T08:34:00Z,28.1778,-88.4643,0.0,30.4,11111222
BP,ioos:station:wmo:42865:1,2022-08-04T08:44:00Z,28.1778,-88.4643,0.0,30.3,11111222
BP,ioos:station:wmo:42865:1,2022-08-04T08:54:00Z,28.1778,-88.4643,0.0,30.1,11111222
BP,ioos:station:wmo:42865:1,2022-08-04T09:04:00Z,28.1778,-88.4643,0.0,30.3,11111222
BP,ioos:station:wmo:42865:1,2022-08-04T09:11:00Z,28.4435,-88.2770,11.0,29.9,11111222
BP,ioos:station:wmo:42865:1,2022-08-04T09:14:00Z,28.1778,-88.4643,0.0,30.4,11111222
BP,ioos:station:wmo:42865:1,2022-08-04T09:24:00Z,28.1778,-88.4643,0.1,30.2,11111222
BP,ioos:station:wmo:42865:1,2022-08-04T09:34:00Z,28.1778,-88.4643,0.2,30.1,11111222
BP,ioos:station:wmo:42865:1,2022-08-04T09:44:00Z,28.1778,-88.4643,0.1,29.8,11111222
BP,ioos:station:wmo:42865:1,2022-08-04T09:54:00Z,28.1778,-88.4643,0.1,29.8,11111222
BP,ioos:station:wmo:42865:1,2022-08-04T10:04:00Z,28.1778,-88.4643,0.0,29.6,11111222
BP,ioos:station:wmo:42865:1,2022-08-04T10:14:00Z,28.1778,-88.4643,0.0,29.5,11111222
BP,ioos:station:wmo:42865:1,2022-08-04T10:29:00Z,28.1778,-88.4643,0.0,29.5,11111222
BP,ioos:station:wmo:42865:1,2022-08-04T10:39:00Z,28.1778,-88.4643,0.1,29.5,11111222
BP,ioos:station:wmo:42865:1,2022-08-04T10:49:00Z,28.1778,-88.4643,0.1,29.5,11111222
BP,ioos:station:wmo:42865:1,2022-08-04T10:59:00Z,28.1778,-88.4643,0.0,29.6,11111222
BP,ioos:station:wmo:42865:1,2022-08-04T11:09:00Z,28.1778,-88.4643,0.0,29.7,11111222
BP,ioos:station:wmo:42865:1,2022-08-04T11:19:00Z,28.1778,-88.4643,0.1,29.8,11111222
BP,ioos:station:wmo:42865:1,2022-08-04T11:29:00Z,28.1778,-88.4643,0.1,29.9,11111222
BP,ioos:station:wmo:42865:1,2022-08-04T11:39:00Z,28.1778,-88.4643,0.0,29.9,11111222
BP,ioos:station:wmo:42865:1,2022-08-04T11:49:00Z,28.1778,-88.4643,0.0,30.0,11111222
BP,ioos:station:wmo:42865:1,2022-08-04T11:59:00Z,28.1778,-88.4643,0.0,29.8,11111222
BP,ioos:station:wmo:42865:1,2022-08-04T12:30:00Z,28.1778,-88.4643,0.0,29.7,11111222
BP,ioos:station:wmo:42865:1,2022-08-04T12:40:00Z,28.1778,-88.4643,0.0,30.2,11111222
BP,ioos:station:wmo:42865:1,2022-08-04T13:01:00Z,28.1778,-88.4643,0.0,30.2,11111222
BP,ioos:station:wmo:42865:1,2022-08-04T13:14:00Z,28.1778,-88.4643,11.0,30.4,11111222
BP,ioos:station:wmo:42865:1,2022-08-04T13:24:00Z,28.1778,-88.4643,11.0,30.4,11111222
BP,ioos:station:wmo:42865:1,2022-08-04T13:34:00Z,28.1778,-88.4643,11.0,30.2,11111222
BP,ioos:station:wmo:42865:1,2022-08-04T13:44:00Z,28.1778,-88.4643,11.0,30.0,11111222
BP,ioos:station:wmo:42865:1,2022-08-04T13:54:00Z,28.1778,-88.4643,11.0,29.9,11111222
BP,ioos:station:wmo:42865:1,2022-08-04T16:03:00Z,28.4435,-88.2770,11.0,30.6,11111222
BP,ioos:station:wmo:42865:1,2022-08-04T16:13:00Z,28.4435,-88.2770,11.0,30.5,11111222
BP,ioos:station:wmo:42865:1,2022-08-04T16:23:00Z,28.4435,-88.2770,11.0,30.4,11111222
BP,ioos:station:wmo:42865:1,2022-08-04T16:33:00Z,28.4435,-88.2770,11.0,30.1,11111222
BP,ioos:station:wmo:42865:1,2022-08-04T16:43:00Z,28.4435,-88.2770,11.0,29.9,11111222
BP,ioos:station:wmo:42865:1,2022-08-04T16:53:00Z,28.4435,-88.2770,11.0,30.0,11111222
BP,ioos:station:wmo:42865:1,2022-08-04T17:03:00Z,28.4435,-88.2770,11.0,30.1,11111222
BP,ioos:station:wmo:42865:1,2022-08-04T17:13:00Z,28.4435,-88.2770,11.0,30.0,11111222
BP,ioos:station:wmo:42865:1,2022-08-04T17:23:00Z,28.4435,-88.2770,11.0,30.1,11111222
BP,ioos:station:wmo:42865:1,2022-08-04T17:33:00Z,28.4435,-88.2770,11.0,30.1,11111222
BP,ioos:station:wmo:42865:1,2022-08-04T17:43:00Z,28.4435,-88.2770,11.0,30.1,11111222
BP,ioos:station:wmo:42865:1,2022-08-04T17:53:00Z,28.4435,-88.2770,11.0,30.3,11111222
BP,ioos:station:wmo:42865:1,2022-08-04T18:03:00Z,28.4435,-88.2770,11.0,30.3,11111222
BP,ioos:station:wmo:42865:1,2022-08-04T18:13:00Z,28.4435,-88.2770,11.0,30.2,11111222
BP,ioos:station:wmo:42865:1,2022-08-04T18:23:00Z,28.4435,-88.2770,11.0,30.2,11111222
BP,ioos:station:wmo:42865:1,2022-08-04T18:33:00Z,28.4435,-88.2770,11.0,30.2,11111222
BP,ioos:station:wmo:42865:1,2022-08-04T18:43:00Z,28.4435,-88.2770,11.0,30.2,11111222
BP,ioos:station:wmo:42865:1,2022-08-04T18:53:00Z,28.4435,-88.2770,11.0,30.3,11111222
BP,ioos:station:wmo:42865:1,2022-08-04T19:03:00Z,28.4435,-88.2770,11.0,30.3,11111222
BP,ioos:station:wmo:42865:1,2022-08-04T19:13:00Z,28.4435,-88.2770,11.0,30.4,11111222
BP,ioos:station:wmo:42865:1,2022-08-04T19:23:00Z,28.4435,-88.2770,11.0,30.5,11111222
BP,ioos:station:wmo:42865:1,2022-08-04T19:33:00Z,28.4435,-88.2770,11.0,30.6,11111222
BP,ioos:station:wmo:42865:1,2022-08-04T19:43:00Z,28.4435,-88.2770,11.0,30.9,11111222
BP,ioos:station:wmo:42865:1,2022-08-04T19:53:00Z,28.4435,-88.2770,11.0,30.8,11111222
BP,ioos:station:wmo:42865:1,2022-08-04T20:03:00Z,28.4435,-88.2770,11.0,30.8,11111222
BP,ioos:station:wmo:42865:1,2022-08-04T20:13:00Z,28.4435,-88.2770,11.0,30.3,11111222
BP,ioos:station:wmo:42865:1,2022-08-04T20:23:00Z,28.4435,-88.2770,11.0,29.7,11111222
BP,ioos:station:wmo:42865:1,2022-08-04T20:33:00Z,28.4435,-88.2770,11.0,29.5,11111222
BP,ioos:station:wmo:42865:1,2022-08-04T20:43:00Z,28.4435,-88.2770,11.0,29.2,11111222
BP,ioos:station:wmo:42865:1,2022-08-04T20:53:00Z,28.4435,-88.2770,11.0,29.1,11111222
BP,ioos:station:wmo:42865:1,2022-08-04T21:03:00Z,28.4435,-88.2770,11.0,29.0,11111222
BP,ioos:station:wmo:42865:1,2022-08-04T21:13:00Z,28.4435,-88.2770,11.0,29.0,11111222
BP,ioos:station:wmo:42865:1,2022-08-04T21:23:00Z,28.4435,-88.2770,11.0,30.0,11111222
BP,ioos:station:wmo:42865:1,2022-08-04T21:33:00Z,28.4435,-88.2770,11.0,30.6,11111222
BP,ioos:station:wmo:42865:1,2022-08-04T21:43:00Z,28.4435,-88.2770,11.0,30.4,11111222
BP,ioos:station:wmo:42865:1,2022-08-04T21:53:00Z,28.4435,-88.2770,11.0,29.9,11111222
BP,ioos:station:wmo:42865:1,2022-08-04T22:03:00Z,28.4435,-88.2770,11.0,29.7,11111222
BP,ioos:station:wmo:42865:1,2022-08-04T22:13:00Z,28.4435,-88.2770,11.0,29.7,11111222
BP,ioos:station:wmo:42865:1,2022-08-04T22:23:00Z,28.4435,-88.2770,11.0,29.9,11111222
BP,ioos:station:wmo:42865:1,2022-08-04T22:33:00Z,28.4435,-88.2770,11.0,30.2,11111222
BP,ioos:station:wmo:42865:1,2022-08-04T22:43:00Z,28.4435,-88.2770,11.0,30.0,11111222
BP,ioos:station:wmo:42865:1,2022-08-04T22:53:00Z,28.4435,-88.2770,11.0,29.8,11111222
BP,ioos:station:wmo:42865:1,2022-08-04T23:03:00Z,28.4435,-88.2770,11.0,29.8,11111222
BP,ioos:station:wmo:42865:1,2022-08-04T23:13:00Z,28.4435,-88.2770,11.0,30.1,11111222
BP,ioos:station:wmo:42865:1,2022-08-04T23:23:00Z,28.4435,-88.2770,11.0,30.1,11111222
BP,ioos:station:wmo:42865:1,2022-08-04T23:33:00Z,28.4435,-88.2770,11.0,30.1,11111222
BP,ioos:station:wmo:42865:1,2022-08-04T23:43:00Z,28.4435,-88.2770,11.0,29.9,11111222
BP,ioos:station:wmo:42865:1,2022-08-04T23:53:00Z,28.4435,-88.2770,11.0,29.9,11111222
BP,ioos:station:wmo:42865:1,2022-08-05T00:03:00Z,28.4435,-88.2770,11.0,30.0,11111222
BP,ioos:station:wmo:42865:1,2022-08-05T00:13:00Z,28.4435,-88.2770,11.0,30.0,11111222
BP,ioos:station:wmo:42865:1,2022-08-05T00:23:00Z,28.4435,-88.2770,11.0,30.1,11111222
BP,ioos:station:wmo:42865:1,2022-08-05T00:33:00Z,28.4435,-88.2770,11.0,30.0,11111222
BP,ioos:station:wmo:42865:1,2022-08-05T00:43:00Z,28.4435,-88.2770,11.0,29.7,11111222
BP,ioos:station:wmo:42865:1,2022-08-05T00:53:00Z,28.4435,-88.2770,11.0,29.9,11111222
BP,ioos:station:wmo:42865:1,2022-08-05T01:03:00Z,28.4435,-88.2770,11.0,29.6,11111222
BP,ioos:station:wmo:42865:1,2022-08-05T01:13:00Z,28.4435,-88.2770,11.0,29.2,11111222
BP,ioos:station:wmo:42865:1,2022-08-05T01:23:00Z,28.4435,-88.2770,11.0,29.7,11111222
BP,ioos:station:wmo:42865:1,2022-08-05T01:33:00Z,28.4435,-88.2770,11.0,29.9,11111222
BP,ioos:station:wmo:42865:1,2022-08-05T01:43:00Z,28.4435,-88.2770,11.0,29.5,11111222
BP,ioos:station:wmo:42865:1,2022-08-05T01:53:00Z,28.4435,-88.2770,11.0,29.0,11111222
BP,ioos:station:wmo:42865:1,2022-08-05T02:03:00Z,28.4435,-88.2770,11.0,28.6,11111222
BP,ioos:station:wmo:42865:1,2022-08-05T02:13:00Z,28.4435,-88.2770,11.0,28.4,11111222
BP,ioos:station:wmo:42865:1,2022-08-05T02:23:00Z,28.4435,-88.2770,11.0,28.3,11111222
BP,ioos:station:wmo:42865:1,2022-08-05T02:33:00Z,28.4435,-88.2770,11.0,28.4,11111222
BP,ioos:station:wmo:42865:1,2022-08-05T02:43:00Z,28.4435,-88.2770,11.0,28.4,11111222
BP,ioos:station:wmo:42865:1,2022-08-05T02:53:00Z,28.4435,-88.2770,11.0,28.4,11111222
BP,ioos:station:wmo:42865:1,2022-08-05T03:03:00Z,28.4435,-88.2770,11.0,29.0,11111222
BP,ioos:station:wmo:42865:1,2022-08-05T03:13:00Z,28.4435,-88.2770,11.0,29.0,11111222
BP,ioos:station:wmo:42865:1,2022-08-05T03:23:00Z,28.4435,-88.2770,11.0,28.5,11111222
BP,ioos:station:wmo:42865:1,2022-08-05T03:33:00Z,28.4435,-88.2770,11.0,28.5,11111222
BP,ioos:station:wmo:42865:1,2022-08-05T03:43:00Z,28.4435,-88.2770,11.0,28.4,11111222
BP,ioos:station:wmo:42865:1,2022-08-05T03:53:00Z,28.4435,-88.2770,11.0,28.3,11111222
BP,ioos:station:wmo:42865:1,2022-08-05T04:03:00Z,28.4435,-88.2770,11.0,28.0,11111222
BP,ioos:station:wmo:42865:1,2022-08-05T04:14:00Z,28.4435,-88.2770,11.0,28.0,11111222
BP,ioos:station:wmo:42865:1,2022-08-05T04:24:00Z,28.4435,-88.2770,11.0,28.1,11111222
BP,ioos:station:wmo:42865:1,2022-08-05T04:34:00Z,28.4435,-88.2770,11.0,28.1,11111222
BP,ioos:station:wmo:42865:1,2022-08-05T04:44:00Z,28.4435,-88.2770,11.0,28.1,11111222
BP,ioos:station:wmo:42865:1,2022-08-05T04:54:00Z,28.4435,-88.2770,11.0,28.1,11111222
BP,ioos:station:wmo:42865:1,2022-08-05T05:04:00Z,28.4435,-88.2770,11.0,28.1,11111222
BP,ioos:station:wmo:42865:1,2022-08-05T05:14:00Z,28.4435,-88.2770,11.0,28.0,11111222
BP,ioos:station:wmo:42865:1,2022-08-05T05:24:00Z,28.4435,-88.2770,11.0,27.8,11111222
BP,ioos:station:wmo:42865:1,2022-08-05T05:34:00Z,28.4435,-88.2770,11.0,28.0,11111222
BP,ioos:station:wmo:42865:1,2022-08-05T05:44:00Z,28.4435,-88.2770,11.0,28.1,11111222
BP,ioos:station:wmo:42865:1,2022-08-05T05:54:00Z,28.4435,-88.2770,11.0,28.3,11111222
BP,ioos:station:wmo:42865:1,2022-08-05T06:04:00Z,28.4435,-88.2770,11.0,28.3,11111222
BP,ioos:station:wmo:42865:1,2022-08-05T06:14:00Z,28.4435,-88.2770,11.0,28.3,11111222
BP,ioos:station:wmo:42865:1,2022-08-05T06:24:00Z,28.4435,-88.2770,11.0,28.1,11111222
BP,ioos:station:wmo:42865:1,2022-08-05T06:34:00Z,28.4435,-88.2770,11.0,28.5,11111222
BP,ioos:station:wmo:42865:1,2022-08-05T06:44:00Z,28.4435,-88.2770,11.0,28.5,11111222
BP,ioos:station:wmo:42865:1,2022-08-05T06:54:00Z,28.4435,-88.2770,11.0,28.9,11111222
BP,ioos:station:wmo:42865:1,2022-08-05T07:04:00Z,28.4435,-88.2770,11.0,29.0,11111222
BP,ioos:station:wmo:42865:1,2022-08-05T07:14:00Z,28.4435,-88.2770,11.0,29.0,11111222
BP,ioos:station:wmo:42865:1,2022-08-05T07:24:00Z,28.4435,-88.2770,11.0,29.2,11111222
BP,ioos:station:wmo:42865:1,2022-08-05T07:34:00Z,28.4435,-88.2770,11.0,29.2,11111222
BP,ioos:station:wmo:42865:1,2022-08-05T07:44:00Z,28.4435,-88.2770,11.0,29.0,11111222
BP,ioos:station:wmo:42865:1,2022-08-05T07:54:00Z,28.4435,-88.2770,11.0,28.9,11111222
BP,ioos:station:wmo:42865:1,2022-08-05T08:04:00Z,28.4435,-88.2770,11.0,29.3,11111222
BP,ioos:station:wmo:42865:1,2022-08-05T08:14:00Z,28.4435,-88.2770,11.0,29.6,11111222
BP,ioos:station:wmo:42865:1,2022-08-05T08:24:00Z,28.4435,-88.2770,11.0,29.6,11111222
BP,ioos:station:wmo:42865:1,2022-08-05T08:34:00Z,28.4435,-88.2770,11.0,29.3,11111222
BP,ioos:station:wmo:42865:1,2022-08-05T08:44:00Z,28.4435,-88.2770,11.0,29.5,11111222
BP,ioos:station:wmo:42865:1,2022-08-05T08:54:00Z,28.4435,-88.2770,11.0,29.3,11111222
BP,ioos:station:wmo:42865:1,2022-08-05T09:04:00Z,28.4435,-88.2770,11.0,29.4,11111222
BP,ioos:station:wmo:42865:1,2022-08-05T09:14:00Z,28.4435,-88.2770,11.0,29.8,11111222
BP,ioos:station:wmo:42865:1,2022-08-05T09:24:00Z,28.4435,-88.2770,11.0,29.4,11111222
BP,ioos:station:wmo:42865:1,2022-08-05T09:34:00Z,28.4435,-88.2770,11.0,30.1,11111222
BP,ioos:station:wmo:42865:1,2022-08-05T09:44:00Z,28.4435,-88.2770,11.0,30.3,11111222
BP,ioos:station:wmo:42865:1,2022-08-05T09:54:00Z,28.4435,-88.2770,11.0,30.4,11111222
BP,ioos:station:wmo:42865:1,2022-08-05T10:04:00Z,28.4435,-88.2770,11.0,30.5,11111222
BP,ioos:station:wmo:42865:1,2022-08-05T10:14:00Z,28.4435,-88.2770,11.0,30.6,11111222
BP,ioos:station:wmo:42865:1,2022-08-05T10:24:00Z,28.4435,-88.2770,11.0,30.6,11111222
BP,ioos:station:wmo:42865:1,2022-08-05T10:34:00Z,28.4435,-88.2770,11.0,30.6,11111222
BP,ioos:station:wmo:42865:1,2022-08-05T10:44:00Z,28.4435,-88.2770,11.0,30.6,11111222
BP,ioos:station:wmo:42865:1,2022-08-05T10:54:00Z,28.4435,-88.2770,11.0,30.6,11111222
BP,ioos:station:wmo:42865:1,2022-08-05T11:04:00Z,28.4435,-88.2770,11.0,30.7,11111222
BP,ioos:station:wmo:42865:1,2022-08-05T11:14:00Z,28.4435,-88.2770,11.0,30.7,11111222
BP,ioos:station:wmo:42865:1,2022-08-05T11:24:00Z,28.4435,-88.2770,11.0,30.6,11111222
BP,ioos:station:wmo:42865:1,2022-08-05T11:34:00Z,28.4435,-88.2770,11.0,30.6,11111222
BP,ioos:station:wmo:42865:1,2022-08-05T11:44:00Z,28.4435,-88.2770,11.0,30.5,11111222
BP,ioos:station:wmo:42865:1,2022-08-05T11:54:00Z,28.4435,-88.2770,11.0,30.5,11111222
BP,ioos:station:wmo:42865:1,2022-08-05T12:04:00Z,28.4435,-88.2770,11.0,30.5,11111222
BP,ioos:station:wmo:42865:1,2022-08-05T12:14:00Z,28.4435,-88.2770,11.0,30.5,11111222
BP,ioos:station:wmo:42865:1,2022-08-05T12:24:00Z,28.4435,-88.2770,11.0,30.5,11111222
BP,ioos:station:wmo:42865:1,2022-08-05T12:34:00Z,28.4435,-88.2770,11.0,30.5,11111222
BP,ioos:station:wmo:42865:1,2022-08-05T12:44:00Z,28.4435,-88.2770,11.0,30.5,11111222
BP,ioos:station:wmo:42865:1,2022-08-05T12:54:00Z,28.4435,-88.2770,11.0,30.6,11111222
BP,ioos:station:wmo:42865:1,2022-08-05T13:04:00Z,28.4435,-88.2770,11.0,30.7,11111222
BP,ioos:station:wmo:42865:1,2022-08-05T13:14:00Z,28.4435,-88.2770,11.0,30.8,11111222
BP,ioos:station:wmo:42865:1,2022-08-05T13:24:00Z,28.4435,-88.2770,11.0,30.9,11111222
BP,ioos:station:wmo:42865:1,2022-08-05T13:34:00Z,28.4435,-88.2770,11.0,30.8,11111222
BP,ioos:station:wmo:42865:1,2022-08-05T13:44:00Z,28.4435,-88.2770,11.0,30.9,11111222
BP,ioos:station:wmo:42865:1,2022-08-05T13:54:00Z,28.4435,-88.2770,11.0,30.9,11111222
BP,ioos:station:wmo:42865:1,2022-08-05T14:04:00Z,28.4435,-88.2770,11.0,30.8,11111222
BP,ioos:station:wmo:42865:1,2022-08-05T14:14:00Z,28.4435,-88.2770,11.0,30.7,11111222
BP,ioos:station:wmo:42865:1,2022-08-05T14:24:00Z,28.4435,-88.2770,11.0,30.6,11111222
BP,ioos:station:wmo:42865:1,2022-08-05T14:34:00Z,28.4435,-88.2770,11.0,30.3,11111222
BP,ioos:station:wmo:42865:1,2022-08-05T14:44:00Z,28.4435,-88.2770,11.0,30.5,11111222
BP,ioos:station:wmo:42865:1,2022-08-05T14:54:00Z,28.4435,-88.2770,11.0,30.5,11111222
BP,ioos:station:wmo:42865:1,2022-08-05T15:04:00Z,28.4435,-88.2770,11.0,30.4,11111222
BP,ioos:station:wmo:42865:1,2022-08-05T15:14:00Z,28.4435,-88.2770,11.0,30.3,11111222
BP,ioos:station:wmo:42865:1,2022-08-05T15:24:00Z,28.4435,-88.2770,11.0,30.5,11111222
BP,ioos:station:wmo:42865:1,2022-08-05T15:34:00Z,28.4435,-88.2770,11.0,30.1,11111222
BP,ioos:station:wmo:42865:1,2022-08-05T15:44:00Z,28.4435,-88.2770,11.0,30.0,11111222
BP,ioos:station:wmo:42865:1,2022-08-05T15:54:00Z,28.4435,-88.2770,11.0,30.0,11111222
BP,ioos:station:wmo:42865:1,2022-08-05T16:04:00Z,28.4435,-88.2770,11.0,30.0,11111222
BP,ioos:station:wmo:42865:1,2022-08-05T16:14:00Z,28.4435,-88.2770,11.0,29.7,11111222
BP,ioos:station:wmo:42865:1,2022-08-05T16:24:00Z,28.4435,-88.2770,11.0,29.6,11111222
BP,ioos:station:wmo:42865:1,2022-08-05T16:34:00Z,28.4435,-88.2770,11.0,29.6,11111222
BP,ioos:station:wmo:42865:1,2022-08-05T16:44:00Z,28.4435,-88.2770,11.0,29.7,11111222
BP,ioos:station:wmo:42865:1,2022-08-05T16:54:00Z,28.4435,-88.2770,11.0,30.0,11111222
BP,ioos:station:wmo:42865:1,2022-08-05T17:04:00Z,28.4435,-88.2770,11.0,30.2,11111222
BP,ioos:station:wmo:42865:1,2022-08-05T17:14:00Z,28.4435,-88.2770,11.0,30.3,11111222
BP,ioos:station:wmo:42865:1,2022-08-05T17:24:00Z,28.4435,-88.2770,11.0,30.3,11111222
BP,ioos:station:wmo:42865:1,2022-08-05T17:34:00Z,28.4435,-88.2770,11.0,30.4,11111222
BP,ioos:station:wmo:42865:1,2022-08-05T17:44:00Z,28.4435,-88.2770,11.0,30.3,11111222
BP,ioos:station:wmo:42865:1,2022-08-05T17:54:00Z,28.4435,-88.2770,11.0,30.0,11111222
BP,ioos:station:wmo:42865:1,2022-08-05T18:04:00Z,28.4435,-88.2770,11.0,30.2,11111222
BP,ioos:station:wmo:42865:1,2022-08-05T18:14:00Z,28.4435,-88.2770,11.0,30.3,11111222
BP,ioos:station:wmo:42865:1,2022-08-05T18:24:00Z,28.4435,-88.2770,11.0,30.3,11111222
BP,ioos:station:wmo:42865:1,2022-08-05T18:34:00Z,28.4435,-88.2770,11.0,30.2,11111222
BP,ioos:station:wmo:42865:1,2022-08-05T18:44:00Z,28.4435,-88.2770,11.0,30.4,11111222
BP,ioos:station:wmo:42865:1,2022-08-05T18:54:00Z,28.4435,-88.2770,11.0,30.3,11111222
BP,ioos:station:wmo:42865:1,2022-08-05T19:05:00Z,28.4435,-88.2770,11.0,30.2,11111222
BP,ioos:station:wmo:42865:1,2022-08-05T19:15:00Z,28.4435,-88.2770,11.0,30.1,11111222
BP,ioos:station:wmo:42865:1,2022-08-05T19:25:00Z,28.4435,-88.2770,11.0,29.8,11111222
BP,ioos:station:wmo:42865:1,2022-08-05T19:35:00Z,28.4435,-88.2770,11.0,29.7,11111222
BP,ioos:station:wmo:42865:1,2022-08-05T19:45:00Z,28.4435,-88.2770,11.0,29.9,11111222
BP,ioos:station:wmo:42865:1,2022-08-05T19:55:00Z,28.4435,-88.2770,11.0,30.3,11111222
BP,ioos:station:wmo:42865:1,2022-08-05T20:05:00Z,28.4435,-88.2770,11.0,30.4,11111222
BP,ioos:station:wmo:42865:1,2022-08-05T20:15:00Z,28.4435,-88.2770,11.0,30.4,11111222
BP,ioos:station:wmo:42865:1,2022-08-05T20:25:00Z,28.4435,-88.2770,11.0,30.4,11111222
BP,ioos:station:wmo:42865:1,2022-08-05T20:35:00Z,28.4435,-88.2770,11.0,30.4,11111222
BP,ioos:station:wmo:42865:1,2022-08-05T20:45:00Z,28.4435,-88.2770,11.0,30.5,11111222
BP,ioos:station:wmo:42865:1,2022-08-05T20:55:00Z,28.4435,-88.2770,11.0,30.3,11111222
BP,ioos:station:wmo:42865:1,2022-08-05T21:05:00Z,28.4435,-88.2770,11.0,30.4,11111222
BP,ioos:station:wmo:42865:1,2022-08-05T21:15:00Z,28.4435,-88.2770,11.0,30.4,11111222
BP,ioos:station:wmo:42865:1,2022-08-05T21:25:00Z,28.4435,-88.2770,11.0,30.2,11111222
BP,ioos:station:wmo:42865:1,2022-08-05T21:35:00Z,28.4435,-88.2770,11.0,30.0,11111222
BP,ioos:station:wmo:42865:1,2022-08-05T21:45:00Z,28.4435,-88.2770,11.0,29.8,11111222
BP,ioos:station:wmo:42865:1,2022-08-05T21:55:00Z,28.4435,-88.2770,11.0,29.7,11111222
BP,ioos:station:wmo:42865:1,2022-08-05T22:05:00Z,28.4435,-88.2770,11.0,29.6,11111222
BP,ioos:station:wmo:42865:1,2022-08-05T22:15:00Z,28.4435,-88.2770,11.0,29.5,11111222
BP,ioos:station:wmo:42865:1,2022-08-05T22:25:00Z,28.4435,-88.2770,11.0,29.5,11111222
BP,ioos:station:wmo:42865:1,2022-08-05T22:35:00Z,28.4435,-88.2770,11.0,29.4,11111222
BP,ioos:station:wmo:42865:1,2022-08-05T22:45:00Z,28.4435,-88.2770,11.0,29.4,11111222
BP,ioos:station:wmo:42865:1,2022-08-05T22:55:00Z,28.4435,-88.2770,11.0,29.3,11111222
BP,ioos:station:wmo:42865:1,2022-08-05T23:05:00Z,28.4435,-88.2770,11.0,29.3,11111222
BP,ioos:station:wmo:42865:1,2022-08-05T23:15:00Z,28.4435,-88.2770,11.0,29.2,11111222
BP,ioos:station:wmo:42865:1,2022-08-05T23:25:00Z,28.4435,-88.2770,11.0,29.3,11111222
BP,ioos:station:wmo:42865:1,2022-08-05T23:35:00Z,28.4435,-88.2770,11.0,29.3,11111222
BP,ioos:station:wmo:42865:1,2022-08-05T23:45:00Z,28.4435,-88.2770,11.0,29.2,11111222
BP,ioos:station:wmo:42865:1,2022-08-05T23:55:00Z,28.4435,-88.2770,11.0,29.5,11111222
BP,ioos:station:wmo:42865:1,2022-08-06T00:05:00Z,28.4435,-88.2770,11.0,30.1,11111222
BP,ioos:station:wmo:42865:1,2022-08-06T00:15:00Z,28.4435,-88.2770,11.0,30.5,11111222
BP,ioos:station:wmo:42865:1,2022-08-06T00:25:00Z,28.4435,-88.2770,11.0,30.5,11111222